Location: Newark
(57.7279°N, 5.6916°W)
Time: 21:20:47
(UTC+00:00)

N. Korean satellite - Pass Details

Date: 12 December 2019
Orbit: 454 x 508 km, 97.2° (Epoch: 18 January)

Event Time Altitude Azimuth Distance (km) Brightness Sun altitude
Rises 05:40:08 0° 21° (NNE) 2,564 10.4 -24.1°
Reaches altitude 10° 05:42:29 10° 35° (NE) 1,667 9.6 -23.8°
Maximum altitude 05:45:32 26° 93° (E) 978 8.8 -23.4°
Drops below altitude 10° 05:48:31 10° 152° (SSE) 1,629 9.6 -23.0°
Sets 05:50:47 0° 166° (SSE) 2,491 10.5 -22.7°
